This is the latest recevied weather packets stored in our database for station/object WA6OOO. If no packets are shown the sender has not sent any weather packets the latest 10 day(s).
| Time | Temp. | Humidity | Pressure | Rain* | Wind** | Luminosity | Snow |
|---|---|---|---|---|---|---|---|
| 1778008651 | 18.89° C | 58% | 1017.8 hPa | 0 mm | - | 834 W/m² | - |
| 1778008350 | 18.89° C | 61% | 1017.8 hPa | 0 mm | - | 593 W/m² | - |
| 1778008046 | 18.33° C | 59% | 1017.8 hPa | 0 mm | - | 396 W/m² | - |
| 1778007746 | 18.33° C | 58% | 1017.8 hPa | 0 mm | - | 711 W/m² | - |
| 1778007442 | 17.78° C | 56% | 1017.8 hPa | 0 mm | - | 825 W/m² | - |
| 1778007139 | 18.89° C | 56% | 1017.8 hPa | 0 mm | - | 803 W/m² | - |
| 1778006835 | 18.33° C | 58% | 1017.7 hPa | 0 mm | - | 849 W/m² | - |
| 1778006533 | 18.33° C | 59% | 1017.9 hPa | 0 mm | - | 836 W/m² | - |
| 1778006229 | 18.33° C | 62% | 1017.9 hPa | 0 mm | - | 813 W/m² | - |
| 1778005927 | 17.78° C | 62% | 1017.7 hPa | 0 mm | - | 741 W/m² | - |
| 1778005622 | 17.78° C | 61% | 1017.7 hPa | 0 mm | - | 776 W/m² | - |
| 1778005320 | 18.33° C | 60% | 1017.6 hPa | 0 mm | - | 754 W/m² | - |
| 1778005016 | 18.33° C | 58% | 1017.7 hPa | 0 mm | - | 745 W/m² | - |
| 1778004714 | 18.33° C | 57% | 1017.7 hPa | 0 mm | - | 736 W/m² | - |
| 1778004410 | 17.78° C | 56% | 1017.6 hPa | 0 mm | - | 725 W/m² | - |
| 1778004107 | 17.78° C | 57% | 1017.7 hPa | 0 mm | - | 716 W/m² | - |
| 1778003803 | 17.78° C | 60% | 1017.6 hPa | 0 mm | - | 705 W/m² | - |
| 1778003500 | 17.78° C | 59% | 1017.5 hPa | 0 mm | - | 698 W/m² | - |
| 1778003196 | 17.78° C | 59% | 1017.8 hPa | 0 mm | - | 689 W/m² | - |
| 1778002892 | 17.78° C | 61% | 1017.6 hPa | 0 mm | - | 684 W/m² | - |
| 1778002589 | 18.33° C | 60% | 1017.4 hPa | 0 mm | - | 544 W/m² | - |
| 1778002286 | 17.78° C | 61% | 1017.5 hPa | 0 mm | - | 666 W/m² | - |
| 1778001984 | 17.78° C | 61% | 1017.4 hPa | 0 mm | - | 649 W/m² | - |
| 1778001680 | 17.78° C | 62% | 1017.4 hPa | 0 mm | - | 638 W/m² | - |
| 1778001375 | 17.78° C | 62% | 1017.5 hPa | 0 mm | - | 625 W/m² | - |
* Rain latest hour (hover to see other rain measurements)
** Current wind speed in m/s (hover to see current wind gust speed)